When you browse on this site, cookies collect data to enhance your experience and personalize the content and advertising you see.
Visit our Privacy Policy to learn more. By continuing to use the site, you agree to this use of cookies and data.
  • In United Kingdom
  • List of Countries
  • For 7 days
  • Water Temperature
  • Weather Map
  • Weather Widgets
  • user-avatar
    Login

    Hourly Weather Sunny Beach

    Today, 20 October, Sunday

    Time Temperature Precipitation Wind Pressure Humidity
    00:00 +15°C° 0 mm 1 mps 739 mmHg 91%
    01:00 +14°C° 0 mm 1 mps 739 mmHg 91%
    02:00 +13°C° 0 mm 0 mps 739 mmHg 93%
    03:00 +13°C° 0 mm 0 mps 739 mmHg 92%
    04:00 +13°C° 0 mm 0 mps 739 mmHg 92%
    05:00 +13°C° 0 mm 0 mps 739 mmHg 92%
    06:00 +14°C° 0 mm 0 mps 740 mmHg 89%
    07:00 +14°C° 0 mm 0 mps 740 mmHg 86%
    08:00 +15°C° 0 mm 0 mps 740 mmHg 81%
    09:00 +19°C° 0 mm 1 mps 740 mmHg 73%
    10:00 +21°C° 0 mm 1 mps 741 mmHg 65%
    11:00 +23°C° 0 mm 1 mps 741 mmHg 56%
    12:00 +23°C° 0 mm 2 mps 741 mmHg 54%
    13:00 +24°C° 0 mm 2 mps 740 mmHg 52%
    14:00 +24°C° 0 mm 3 mps 740 mmHg 50%
    15:00 +22°C° 0 mm 3 mps 740 mmHg 59%
    16:00 +20°C° 0 mm 2 mps 740 mmHg 67%
    17:00 +18°C° 0 mm 2 mps 740 mmHg 76%
    18:00 +17°C° 0 mm 2 mps 740 mmHg 80%
    19:00 +16°C° 0 mm 2 mps 740 mmHg 85%
    20:00 +15°C° 0 mm 1 mps 740 mmHg 90%
    21:00 +14°C° 0 mm 1 mps 740 mmHg 89%
    22:00 +14°C° 0 mm 1 mps 741 mmHg 88%
    23:00 +14°C° 0 mm 1 mps 741 mmHg 88%

    Tomorrow, 21 October, Monday

    Time Temperature Precipitation Wind Pressure Humidity
    00:00 +14°C° 0 mm 1 mps 741 mmHg 87%
    01:00 +12°C° 0 mm 0 mps 740 mmHg 87%
    02:00 +12°C° 0 mm 0 mps 740 mmHg 87%
    03:00 +12°C° 0 mm 0 mps 740 mmHg 88%
    04:00 +12°C° 0 mm 0 mps 740 mmHg 89%
    05:00 +12°C° 0 mm 0 mps 740 mmHg 90%
    06:00 +12°C° 0 mm 0 mps 741 mmHg 89%
    07:00 +14°C° 0 mm 1 mps 741 mmHg 88%
    08:00 +15°C° 0 mm 1 mps 741 mmHg 87%
    09:00 +18°C° 0 mm 1 mps 741 mmHg 80%
    10:00 +18°C° 0 mm 2 mps 741 mmHg 74%
    11:00 +20°C° 0 mm 2 mps 742 mmHg 67%
    12:00 +20°C° 0 mm 2 mps 741 mmHg 65%
    13:00 +21°C° 0 mm 3 mps 741 mmHg 62%
    14:00 +21°C° 0 mm 3 mps 741 mmHg 60%
    15:00 +20°C° 0 mm 3 mps 741 mmHg 66%
    16:00 +18°C° 0 mm 2 mps 741 mmHg 72%
    17:00 +17°C° 0 mm 2 mps 740 mmHg 79%
    18:00 +16°C° 0 mm 2 mps 741 mmHg 83%
    19:00 +15°C° 0 mm 2 mps 741 mmHg 88%
    20:00 +14°C° 0 mm 1 mps 741 mmHg 93%
    21:00 +14°C° 0 mm 1 mps 741 mmHg 93%
    22:00 +13°C° 0 mm 1 mps 741 mmHg 94%
    23:00 +13°C° 0 mm 1 mps 741 mmHg 94%

    Day after tomorrow, 22 October, Tuesday

    Time Temperature Precipitation Wind Pressure Humidity
    00:00 +13°C° 0 mm 1 mps 741 mmHg 94%
    01:00 +13°C° 0 mm 1 mps 741 mmHg 95%
    02:00 +13°C° 0 mm 1 mps 741 mmHg 95%
    03:00 +13°C° 0 mm 1 mps 741 mmHg 96%
    04:00 +12°C° 0 mm 1 mps 741 mmHg 96%
    05:00 +12°C° 0 mm 1 mps 741 mmHg 96%
    06:00 +13°C° 0 mm 1 mps 741 mmHg 94%
    07:00 +14°C° 0 mm 1 mps 741 mmHg 91%
    08:00 +14°C° 0 mm 1 mps 741 mmHg 89%
    09:00 +16°C° 0 mm 2 mps 741 mmHg 80%
    10:00 +18°C° 0 mm 3 mps 741 mmHg 71%
    11:00 +20°C° 0 mm 3 mps 742 mmHg 62%
    12:00 +20°C° 0 mm 4 mps 741 mmHg 58%
    13:00 +21°C° 0 mm 4 mps 741 mmHg 55%
    14:00 +21°C° 0 mm 5 mps 741 mmHg 52%
    15:00 +20°C° 0 mm 5 mps 741 mmHg 59%
    16:00 +17°C° 0 mm 5 mps 741 mmHg 67%
    17:00 +17°C° 0 mm 4 mps 740 mmHg 74%
    18:00 +15°C° 0 mm 4 mps 741 mmHg 80%
    19:00 +14°C° 0 mm 3 mps 741 mmHg 86%
    20:00 +13°C° 0 mm 3 mps 741 mmHg 92%
    21:00 +13°C° 0 mm 3 mps 741 mmHg 92%
    22:00 +14°C° 0 mm 2 mps 741 mmHg 92%
    23:00 +13°C° 0 mm 2 mps 741 mmHg 93%

    23 October, Wednesday

    Time Temperature Precipitation Wind Pressure Humidity
    00:00 +13°C° 0 mm 2 mps 741 mmHg 93%
    01:00 +13°C° 0 mm 2 mps 741 mmHg 93%
    02:00 +13°C° 0 mm 2 mps 741 mmHg 93%
    03:00 +13°C° 0 mm 2 mps 740 mmHg 93%
    04:00 +13°C° 0 mm 2 mps 740 mmHg 92%
    05:00 +12°C° 0 mm 2 mps 740 mmHg 92%
    06:00 +13°C° 0 mm 2 mps 740 mmHg 88%
    07:00 +14°C° 0 mm 2 mps 740 mmHg 84%
    08:00 +14°C° 0 mm 2 mps 740 mmHg 80%
    09:00 +16°C° 0 mm 3 mps 740 mmHg 72%
    10:00 +18°C° 0 mm 3 mps 740 mmHg 63%
    11:00 +20°C° 0 mm 4 mps 740 mmHg 55%
    12:00 +20°C° 0 mm 4 mps 740 mmHg 53%
    13:00 +20°C° 0 mm 4 mps 740 mmHg 52%
    14:00 +21°C° 0 mm 4 mps 740 mmHg 50%
    15:00 +19°C° 0 mm 4 mps 739 mmHg 58%
    16:00 +18°C° 0 mm 4 mps 739 mmHg 65%
    17:00 +16°C° 0 mm 3 mps 739 mmHg 72%
    18:00 +14°C° 0 mm 3 mps 739 mmHg 78%
    19:00 +14°C° 0 mm 2 mps 739 mmHg 84%
    20:00 +13°C° 0 mm 2 mps 739 mmHg 90%
    21:00 +13°C° 0 mm 1 mps 739 mmHg 90%
    22:00 +13°C° 0 mm 1 mps 739 mmHg 89%
    23:00 +13°C° 0 mm 1 mps 739 mmHg 89%

    24 October, Thursday

    Time Temperature Precipitation Wind Pressure Humidity
    00:00 +12°C° 0 mm 1 mps 739 mmHg 89%
    01:00 +12°C° 0 mm 1 mps 739 mmHg 90%
    02:00 +12°C° 0 mm 1 mps 739 mmHg 90%
    03:00 +12°C° 0 mm 1 mps 738 mmHg 90%
    04:00 +12°C° 0 mm 1 mps 738 mmHg 90%
    05:00 +12°C° 0 mm 1 mps 738 mmHg 90%
    06:00 +12°C° 0 mm 1 mps 738 mmHg 88%
    07:00 +13°C° 0 mm 1 mps 738 mmHg 85%
    08:00 +14°C° 0 mm 1 mps 738 mmHg 82%
    09:00 +16°C° 0 mm 1 mps 738 mmHg 74%
    10:00 +17°C° 0 mm 2 mps 738 mmHg 65%
    11:00 +19°C° 0 mm 2 mps 738 mmHg 56%
    12:00 +20°C° 0 mm 3 mps 738 mmHg 54%
    13:00 +20°C° 0 mm 3 mps 738 mmHg 52%
    14:00 +20°C° 0 mm 3 mps 738 mmHg 50%
    15:00 +19°C° 0 mm 3 mps 737 mmHg 58%
    16:00 +17°C° 0 mm 2 mps 737 mmHg 66%
    17:00 +16°C° 0 mm 2 mps 737 mmHg 73%
    18:00 +15°C° 0 mm 2 mps 737 mmHg 78%
    19:00 +14°C° 0 mm 1 mps 737 mmHg 83%
    20:00 +13°C° 0 mm 1 mps 737 mmHg 88%
    21:00 +13°C° 0 mm 1 mps 737 mmHg 88%
    22:00 +12°C° 0 mm 1 mps 737 mmHg 88%
    23:00 +12°C° 0 mm 1 mps 737 mmHg 88%

    25 October, Friday

    Time Temperature Precipitation Wind Pressure Humidity
    00:00 +11°C° 0 mm 0 mps 737 mmHg 88%
    01:00 +11°C° 0 mm 0 mps 737 mmHg 87%
    02:00 +10°C° 0 mm 0 mps 736 mmHg 87%
    03:00 +10°C° 0 mm 0 mps 736 mmHg 86%
    04:00 +10°C° 0 mm 0 mps 736 mmHg 85%
    05:00 +10°C° 0 mm 0 mps 736 mmHg 85%
    06:00 +11°C° 0 mm 0 mps 736 mmHg 80%
    07:00 +12°C° 0 mm 0 mps 736 mmHg 76%
    08:00 +13°C° 0 mm 0 mps 737 mmHg 72%
    09:00 +16°C° 0 mm 1 mps 737 mmHg 63%
    10:00 +19°C° 0 mm 1 mps 737 mmHg 55%
    11:00 +21°C° 0 mm 1 mps 737 mmHg 47%
    12:00 +20°C° 0 mm 2 mps 737 mmHg 45%
    13:00 +21°C° 0 mm 2 mps 737 mmHg 44%
    14:00 +21°C° 0 mm 2 mps 736 mmHg 42%
    15:00 +19°C° 0 mm 2 mps 736 mmHg 51%
    16:00 +18°C° 0 mm 2 mps 736 mmHg 59%
    17:00 +16°C° 0 mm 2 mps 736 mmHg 68%
    18:00 +15°C° 0 mm 2 mps 736 mmHg 72%
    19:00 +14°C° 0 mm 1 mps 736 mmHg 76%
    20:00 +13°C° 0 mm 1 mps 736 mmHg 80%
    21:00 +13°C° 0 mm 1 mps 736 mmHg 81%
    22:00 +12°C° 0 mm 1 mps 737 mmHg 82%
    23:00 +12°C° 0 mm 1 mps 737 mmHg 83%
    Show more